Tracking 27405 objects as of 2-Jun-2023
HD Live streaming from Space Station
objects crossing your sky now

JCSAT 10

Track JCSAT 10 now!
JCSAT 10 is classified as:


NORAD ID: 29272
Int'l Code: 2006-033A
Perigee: 35,785.4 km
Apogee: 35,802.9 km
Inclination: 0.1 °
Period: 1,436.1 minutes
Semi major axis: 42165 km
RCS: 25.1189 m2 (large)
Launch date: August 11, 2006
Source: Japan (JPN)
Launch site: FRENCH GUIANA (FRGUI)

JCSat 10 is a Japanese geostationary communications satellite. The 4.4 tonne satellite carries 30 Ku-band and 12 C-band transponders to provide direct-to-home radio and television services to Japan, Asia-Pacific, and Hawaii, after parking over 128° E longitude.
Your satellite tracking list
Your tracking list is empty




NASA's NSSDC Master Catalog

Two Line Element Set (TLE):
1 29272U 06033A   23152.53243716 -.00000324  00000-0  00000-0 0  9998
2 29272   0.0505 112.7510 0002071 311.6725 145.0234  1.00270261 36597
Source of the keplerian elements: AFSPC